World > North America > United States > Pennsylvania

Hourly Bareville, PA Regional Weather

Feedback E-mail the Weather

Quick WX

Bareville, PA Weather Maps

°F °C°F °C
Bareville Weather Map
UTC Time: 6/30/2022, 19:43
Your Time:

Bareville, PA Regional Weather

Expires:202206302000;;453971
ASUS41 KPHI 301914
RWRPHI

REGIONAL WEATHER ROUNDUP
NATIONAL WEATHER SERVICE MOUNT HOLLY NJ
300 PM EDT THU JUN 30 2022

NOTE:  "FAIR" INDICATES FEW OR NO CLOUDS BELOW 12,000 FEET WITH NO
SIGNIFICANT WEATHER AND/OR OBSTRUCTIONS TO VISIBILITY.

 * = STATION DOES NOT REPORT PRECIPITATION (E.G. RAIN, SNOW, ETC.) 
        OR FOG.


PAZ043-044-047-054-055-060>062-066>071-302000-
EASTERN PENNSYLVANIA
  
CITY           SKY/WX    TMP DP  RH WIND       PRES   REMARKS
PHILADELPHIA   MOSUNNY   89  55  31 SW9       30.16F                  
NORTH PHILA    MOSUNNY   87  57  35 VRB5      30.17F                  
BLUE BELL*     PTSUNNY   87  60  40 NW6       30.17F                  
DOYLESTOWN     MOSUNNY   86  57  37 VRB3      30.16F                  
QUAKERTOWN*    MOSUNNY   84  61  45 SW8       30.18S                  
PERKASIE*      MOCLDY    82  59  44 W5        30.18F                  
LANCASTER      PTSUNNY   87  56  34 CALM      30.17F                  
COATESVILLE    SUNNY     84  52  32 CALM      30.20F                  
WEST CHESTER   FAIR      86  55  35 W8        30.18F                  
READING        SUNNY     88  60  38 W12       30.16F                  
ALLENTOWN      MOSUNNY   85  58  39 VRB6      30.16F                  
QN CITY/ALNTWN FAIR      84  61  45 SW7       30.18S                  
MOUNT POCONO   MOSUNNY   78  57  48 W7G16     30.21F                  
HAZLETON       MOSUNNY   81  55  41 SW5       30.24F                  
LEHIGHTON      FAIR      82  55  39 NW3       30.17F                  
WILKES BARRE   MOSUNNY   85  58  39 VRB3      30.17F                  

$$

SKY/WX - Weather  TMP - Temperature  DP - Dew Point  RH - Humidity
WIND - Wind Direction/Speed PRES - Barometric Pressure VSB - Visibility
WCI - Wind Chill Index E13G22 Wind - East Wind 13 mph/Gusts of 22 mph

Trending Headlines

Bareville Radar Loop



Bareville Quick Facts


National Two Day Weather Forecast


E-mail the Bareville Weather Forecast

Voice your opinion or tell us about page issues...